Temperature
15 15 15 15 15 15 15 15 15 15 15 15 15 15 15 15 15 15 15 15 15 15 15 15 15 15 15 15 15 15 15 15 14 14 14 14 14 14 14 14 14 14 14
14 14 15 15 15 15 15 15 15 15 15 15 15 15 15 15 15 15 15 15 15 15 15 15 15 15 15 15 15 15 15 15 14 14 14 14 14 14 14 14 14 14 14
14 14 14 14 15 15 15 15 15 15 15 15 15 15 15 15 15 15 15 15 15 15 15 15 15 15 15 15 15 14 15 15 14 14 14 14 14 14 14 14 14 14 13
14 14 14 14 14 14 15 15 15 15 15 15 15 15 15 15 15 15 15 15 15 15 15 15 15 14 14 14 14 14 14 14 14 14 13 13 13 13 13 13 13 13 13
14 14 14 14 14 14 14 14 15 15 15 15 15 15 15 15 15 15 15 15 15 14 14 14 14 14 14 14 14 14 14 14 14 14 13 13 13 13 13 13 13 13 13
13 14 14 14 14 14 14 14 14 14 14 15 15 15 15 15 15 15 15 15 14 14 14 14 14 14 14 14 14 14 14 14 13 13 13 13 13 13 13 13 13 13 12
13 13 13 13 13 14 14 14 14 14 14 14 14 14 14 14 14 14 14 14 14 14 14 14 14 14 14 14 14 14 14 14 13 13 13 13 12 13 13 12 12 12 12
13 13 13 13 13 13 13 14 14 14 14 14 14 14 14 14 14 14 14 14 14 14 14 14 14 14 14 14 14 14 13 13 13 13 12 12 12 12 12 12 12 12 12
12 12 13 13 13 13 13 13 14 14 14 14 14 14 14 14 14 14 14 14 14 14 14 14 13 13 13 13 13 13 13 13 12 12 12 12 12 12 12 12 12 12 12
12 12 12 12 13 13 13 13 13 13 13 14 14 13 14 13 13 13 13 13 13 13 13 13 13 13 13 13 13 13 13 13 12 12 12 12 12 12 12 12 12 11 11
12 12 12 12 12 12 13 13 13 13 13 13 13 13 13 13 13 13 13 13 13 13 13 13 13 13 13 13 13 13 13 12 12 12 12 12 12 12 12 11 11 11 11
11 11 12 12 12 12 12 12 12 12 13 13 13 13 13 13 13 13 13 13 13 13 13 13 12 12 12 12 12 12 12 12 12 11 11 12 11 11 11 11 11 11 11
11 11 11 12 12 12 12 12 12 12 12 12 12 12 12 12 12 12 12 12 12 12 12 12 12 12 12 12 12 12 12 12 11 11 11 11 11 11 11 11 11 11 11
10 10 11 11 11 11 11 11 11 11 11 12 12 12 12 12 12 12 12 12 12 12 12 12 12 12 12 11 11 11 11 11 11 11 11 11 11 11 11 11 11 11 11
10 10 10 11 11 11 11 11 11 11 11 11 11 11 11 11 12 12 12 11 11 11 11 11 11 11 11 11 11 11 11 11 10 10 11 11 11 11 11 11 11 11 10
9 10 10 10 10 10 10 11 11 11 11 11 10 11 11 11 11 11 11 11 11 11 11 11 11 11 11 11 10 10 10 10 10 10 10 10 11 11 11 11 10 10 10
9 9 10 10 10 10 10 10 10 10 10 10 10 10 10 10 11 11 11 11 11 11 10 11 10 10 10 10 10 10 10 10 10 10 10 10 10 10 10 10 10 10 10
9 9 9 9 9 9 9 10 10 10 10 10 10 10 10 10 10 10 10 10 10 10 10 10 10 10 10 10 10 10 9 10 10 10 10 10 10 10 10 10 10 10 10
9 9 9 9 9 9 9 9 9 9 9 9 9 9 9 10 10 10 10 10 10 10 10 10 10 9 9 9 9 9 9 9 9 9 9 9 9 9 9 9 9 9 9
8 8 8 8 8 8 8 8 9 9 9 9 9 9 9 9 9 9 9 9 9 9 9 9 9 9 9 9 9 9 9 9 9 8 8 8 9 9 9 9 9 9 9
8 8 8 8 8 8 8 8 8 8 8 8 9 9 9 9 9 9 9 9 9 9 9 9 9 9 8 8 8 8 8 8 8 8 8 8 8 8 8 8 8 8 8
7 7 7 7 7 7 8 7 8 8 7 8 8 8 8 8 8 9 9 8 8 8 9 9 9 8 8 8 8 7 7 7 7 7 8 8 8 8 8 8 8 8 8
6 7 7 7 7 7 7 7 7 7 7 7 8 8 8 8 8 8 8 8 8 8 8 8 8 8 8 8 7 7 7 7 6 7 7 7 7 7 7 7 7 7 7
6 6 7 7 7 7 7 7 7 7 7 7 7 7 8 8 8 8 8 8 8 8 7 8 8 8 8 7 7 7 7 7 6 6 6 6 6 6 6 7 7 7 7
6 6 6 6 6 6 6 6 6 6 6 6 7 7 7 7 7 7 7 7 7 7 7 7 7 7 7 7 7 7 7 7 7 6 5 6 6 6 6 6 6 6 6
5 6 6 6 6 6 6 6 6 6 6 6 6 6 6 7 7 7 7 7 7 7 7 7 7 7 7 6 6 6 6 6 6 6 6 5 5 5 6 6 6 6 6
Wind_Speed
2 3 4 3 3 4 5 6 6 6 7 7 7 7 7 7 8 7 7 8 7 8 9 10 10 10 11 11 11 12 12 12 12 12 13 12 12 12 12 11 10 11 12
2 4 5 4 4 4 4 5 6 6 6 7 7 7 7 7 7 7 7 7 7 8 9 10 10 10 11 11 11 12 12 11 11 11 11 11 11 11 11 11 11 11 12
3 4 5 4 4 4 4 4 5 6 6 6 6 6 6 6 6 6 7 7 7 7 8 9 10 10 10 11 11 11 11 11 10 9 7 8 10 10 11 11 11 11 11
3 4 4 5 4 4 3 3 5 5 5 6 6 6 6 6 6 6 6 6 7 7 8 9 10 10 11 10 10 11 11 10 9 5 6 8 9 10 11 11 11 11 11
3 4 5 4 4 4 3 3 4 4 5 5 5 5 5 6 6 6 6 6 7 7 8 9 9 10 10 9 10 10 10 9 6 5 7 7 8 10 10 10 10 10 10
3 3 4 3 3 3 4 3 4 4 4 4 4 5 5 5 6 6 6 6 7 7 8 8 9 9 9 9 9 9 9 7 5 6 6 6 7 9 9 9 10 10 9
3 3 3 3 3 3 3 3 4 4 4 3 3 4 4 5 5 5 6 6 6 7 7 7 8 8 8 8 8 8 7 4 5 5 5 6 7 8 8 8 8 8 9
2 2 2 3 3 3 3 3 4 4 3 3 3 4 4 4 4 4 5 6 6 6 6 7 7 7 7 7 8 7 6 4 4 4 4 5 6 6 7 7 7 7 7
2 2 2 2 2 2 3 2 4 4 3 3 3 4 4 3 3 4 5 6 6 6 6 6 6 7 7 7 6 6 6 3 3 4 4 4 6 6 6 6 6 6 6
2 1 1 1 1 1 1 2 3 3 3 3 3 3 4 4 3 4 4 5 6 6 6 6 6 6 6 6 6 6 5 3 4 3 3 4 4 5 6 6 6 6 7
1 1 1 1 1 0 1 2 3 3 3 3 3 3 3 3 3 3 3 5 5 5 5 6 5 5 6 6 6 5 4 2 3 3 3 5 4 5 5 5 6 6 6
1 1 1 1 0 0 1 2 2 2 2 2 1 2 2 2 2 2 4 5 5 5 5 5 5 5 4 4 5 4 2 2 3 3 4 5 4 4 5 5 5 5 5
2 2 2 1 0 0 0 1 1 1 1 1 1 1 2 2 2 2 2 3 4 4 4 4 4 3 3 3 3 2 2 2 2 2 4 4 3 3 3 3 3 3 3
2 2 2 1 0 0 1 1 1 1 1 1 1 1 2 1 1 2 2 1 2 2 3 3 2 3 3 3 3 3 2 1 1 2 3 4 3 2 2 2 2 2 2
2 2 2 2 1 1 1 1 1 1 1 2 2 2 2 1 2 1 2 1 2 2 2 2 2 2 3 3 3 3 2 2 1 2 3 4 3 3 2 1 1 1 2
3 2 2 2 2 2 2 2 2 2 2 2 2 2 2 2 1 1 2 1 1 2 2 2 2 2 2 2 2 2 2 2 1 1 2 3 3 3 2 1 1 1 2
3 2 2 2 2 2 3 2 2 2 2 2 2 3 3 2 2 2 2 1 1 2 2 2 2 1 2 2 2 2 2 2 2 2 1 1 1 2 2 1 1 1 2
3 2 2 2 2 3 3 3 2 3 3 2 3 3 3 3 3 2 2 2 1 2 2 2 2 2 2 2 1 1 1 1 1 1 1 1 0 0 1 2 1 1 1
3 3 2 2 3 3 3 3 3 2 3 2 3 3 3 4 4 3 2 2 2 2 2 2 2 2 2 2 1 1 1 1 1 1 1 1 1 1 0 2 2 2 1
3 3 3 2 2 2 2 2 2 2 2 2 2 3 3 4 3 2 2 2 3 3 2 3 3 2 2 2 2 1 1 0 1 1 1 1 1 0 0 0 1 1 1
3 3 3 3 3 2 2 3 3 3 3 2 2 3 4 4 4 3 2 2 2 3 4 4 3 4 2 2 1 1 1 1 0 1 1 0 0 0 0 0 0 1 0
3 3 3 3 3 3 3 3 3 3 2 3 2 3 3 4 4 3 3 3 2 2 3 4 4 2 2 2 2 2 1 1 1 0 0 0 1 0 0 1 1 1 1
4 4 3 4 4 4 3 2 2 2 2 2 3 3 4 4 5 4 4 3 3 2 3 4 5 3 3 2 2 2 2 2 1 1 1 1 1 1 1 1 1 2 2
4 4 4 4 4 4 3 3 4 4 4 4 3 3 3 4 5 4 4 4 4 3 4 5 4 4 5 3 2 2 2 1 2 1 1 2 2 2 2 2 2 2 2
4 3 3 4 4 4 4 4 4 5 4 3 3 4 3 3 4 4 4 4 4 4 4 5 5 5 4 4 3 2 2 1 2 3 3 3 2 2 2 3 2 2 3
4 3 3 3 4 4 4 5 6 6 5 4 4 4 3 3 4 4 5 4 4 4 4 5 5 6 5 5 4 3 3 3 3 2 3 3 3 2 3 3 3 2 3
Wind_Direction
140 134 121 109 96 106 102 113 113 109 108 105 102 106 103 100 97 98 99 97 97 96 98 98 97 93 91 91 90 90 88 86 82 80 79 79 80 79 77 74 73 75 71
142 141 126 110 102 112 109 111 116 113 108 108 105 107 108 103 99 96 99 99 99 97 97 98 97 93 91 88 89 89 87 86 83 81 82 86 84 80 78 71 66 73 71
119 129 133 109 101 106 109 115 121 120 114 111 110 108 113 110 104 98 99 101 102 100 99 99 96 92 92 90 89 91 88 85 84 84 91 88 86 83 80 77 76 76 73
112 123 122 107 99 102 103 110 128 128 125 120 117 115 113 114 111 103 98 97 103 103 102 99 97 95 92 90 90 90 89 87 87 90 90 84 84 82 81 78 77 76 73
111 116 110 97 96 95 103 109 122 124 129 127 124 124 117 117 113 108 98 92 100 104 103 103 100 97 95 93 93 92 91 90 92 90 86 84 84 82 80 77 76 74 73
112 108 106 91 92 91 95 103 126 122 119 126 130 127 125 116 115 108 101 93 93 102 105 105 104 101 100 101 97 95 94 97 108 91 89 86 86 83 79 77 76 74 73
111 98 106 87 87 93 92 93 115 121 118 120 125 125 123 121 111 116 111 103 96 96 104 107 106 105 103 102 102 98 94 93 95 92 91 87 86 82 81 79 79 74 70
108 102 104 89 77 80 80 99 107 104 106 111 116 120 117 124 118 119 120 114 108 102 102 107 111 112 108 105 105 100 93 87 100 97 94 92 87 84 84 83 79 74 74
95 95 91 112 106 87 63 95 106 100 94 98 106 116 118 120 130 120 119 118 115 110 104 105 112 116 114 110 109 104 93 76 99 96 97 95 92 87 86 83 78 77 77
88 77 63 84 105 134 103 102 102 100 97 99 98 105 121 124 127 129 119 123 120 117 116 110 112 117 120 114 109 107 105 121 98 103 102 98 91 93 90 85 80 79 78
64 34 33 39 67 100 124 131 122 116 103 107 109 104 123 145 149 152 118 119 121 118 119 112 115 119 125 119 114 117 136 111 103 94 90 90 91 92 94 91 83 79 80
265 320 331 350 13 36 127 150 154 146 136 121 114 129 152 154 153 156 136 119 126 125 124 116 119 125 132 130 131 143 138 121 99 94 88 85 84 86 91 92 86 82 80
257 289 298 312 345 35 134 158 142 149 151 151 121 152 168 157 147 136 140 129 136 137 128 121 131 132 130 129 138 143 130 123 105 94 93 85 81 77 86 97 90 87 84
262 283 298 287 247 215 186 167 161 158 168 167 169 172 168 155 149 145 141 146 144 136 128 131 127 136 136 139 142 137 131 119 123 115 92 90 97 80 81 99 98 101 104
262 279 299 288 243 200 177 179 186 193 207 189 181 188 185 173 164 158 150 165 153 146 148 145 143 137 138 137 140 144 144 146 143 130 108 87 102 102 84 88 108 122 113
262 266 280 276 251 202 199 196 203 207 215 208 189 189 189 192 169 173 158 152 162 164 162 162 156 153 145 135 143 147 150 146 147 134 129 108 88 93 88 51 50 126 124
256 262 260 272 264 225 211 206 209 212 214 207 202 200 192 200 190 179 171 157 168 173 167 161 145 144 136 139 150 140 135 138 144 129 139 144 121 89 79 51 80 85 103
256 255 259 262 253 236 228 216 214 220 220 215 210 207 204 205 197 184 180 162 150 160 167 167 157 147 140 140 138 116 106 102 115 113 114 129 87 32 92 72 59 85 107
257 253 247 249 247 236 244 220 215 221 226 223 216 209 212 206 197 187 184 168 163 154 170 173 164 156 158 137 111 90 78 86 71 100 96 101 87 20 27 77 72 52 58
269 264 251 240 237 226 228 221 209 218 226 228 221 211 211 204 195 183 185 181 172 171 165 172 161 148 155 133 109 77 46 71 50 87 77 81 67 41 1 19 103 66 50
275 272 262 249 234 216 224 229 223 224 226 227 233 221 209 205 198 183 179 188 192 189 177 170 155 155 151 138 123 81 13 57 75 84 81 9 308 336 5 18 324 278 242
276 266 263 257 240 226 227 237 238 233 239 238 233 234 216 206 203 200 195 191 197 200 180 170 150 160 170 174 179 175 204 223 179 278 232 264 291 272 314 359 332 298 273
287 275 264 263 249 230 223 222 218 215 224 226 231 235 229 214 206 205 205 197 193 193 190 185 176 170 175 195 192 191 208 225 274 217 262 252 269 275 269 268 290 304 286
284 285 274 262 255 236 216 213 213 220 229 235 230 228 234 221 214 208 207 206 200 198 199 193 191 188 180 191 202 230 248 238 218 224 237 251 270 270 269 262 258 273 290
292 293 285 271 263 247 229 220 221 231 238 240 228 227 231 221 219 220 212 211 203 203 205 199 194 192 191 197 205 215 225 229 227 229 241 248 264 263 268 268 260 261 273
314 316 302 285 276 264 247 235 226 230 231 233 234 227 232 228 220 222 222 214 207 209 207 203 192 193 197 202 208 213 217 214 217 230 240 241 258 265 267 265 268 267 268
Height
1530 1530 1530 1532 1533 1533 1534 1534 1535 1535 1535 1535 1536 1536 1536 1536 1536 1536 1536 1536 1536 1536 1536 1536 1536 1536 1535 1535 1534 1534 1534 1534 1534 1533 1533 1533 1532 1532 1531 1531 1531 1531 1530
1530 1530 1530 1532 1533 1533 1534 1534 1535 1535 1536 1536 1536 1536 1536 1536 1536 1537 1537 1537 1537 1537 1537 1537 1537 1537 1536 1536 1535 1535 1535 1535 1535 1534 1534 1534 1534 1533 1533 1532 1532 1531 1531
1529 1530 1531 1532 1533 1533 1534 1535 1535 1535 1536 1536 1536 1536 1536 1537 1537 1537 1537 1537 1538 1538 1538 1538 1537 1537 1537 1537 1536 1536 1536 1536 1536 1535 1536 1536 1535 1534 1534 1533 1533 1532 1532
1530 1530 1531 1531 1532 1533 1534 1534 1535 1535 1536 1536 1536 1536 1537 1537 1537 1537 1538 1538 1538 1538 1538 1538 1538 1538 1537 1537 1537 1537 1537 1537 1536 1536 1537 1537 1536 1535 1535 1534 1534 1533 1532
1530 1530 1531 1531 1532 1533 1534 1534 1535 1535 1536 1536 1536 1536 1537 1537 1537 1537 1538 1538 1538 1538 1538 1538 1538 1538 1538 1538 1537 1537 1537 1537 1537 1537 1537 1537 1537 1536 1536 1535 1535 1534 1533
1530 1531 1531 1531 1532 1532 1533 1533 1534 1535 1535 1535 1536 1536 1536 1537 1537 1537 1538 1538 1538 1538 1538 1538 1538 1538 1538 1538 1538 1537 1537 1537 1538 1538 1538 1538 1538 1537 1536 1536 1535 1535 1534
1530 1530 1531 1531 1531 1532 1532 1533 1533 1534 1534 1535 1535 1536 1536 1536 1537 1537 1537 1537 1538 1538 1538 1538 1538 1538 1538 1538 1538 1537 1537 1538 1538 1538 1538 1538 1538 1537 1537 1536 1536 1535 1535
1529 1530 1530 1530 1531 1531 1532 1532 1532 1533 1533 1534 1534 1535 1535 1536 1536 1537 1537 1537 1537 1537 1537 1538 1538 1538 1538 1538 1538 1538 1538 1538 1538 1538 1538 1538 1538 1538 1537 1537 1536 1536 1535
1528 1529 1529 1530 1530 1530 1531 1531 1531 1532 1532 1533 1533 1534 1534 1535 1535 1535 1536 1536 1537 1537 1537 1537 1538 1538 1538 1538 1538 1538 1538 1538 1538 1538 1538 1538 1538 1538 1537 1537 1536 1536 1535
1528 1528 1528 1529 1529 1529 1530 1530 1530 1531 1531 1532 1532 1533 1533 1534 1534 1534 1535 1535 1536 1536 1536 1536 1537 1537 1537 1537 1538 1538 1538 1538 1538 1538 1538 1538 1538 1538 1537 1537 1536 1536 1535
1527 1527 1527 1527 1528 1528 1528 1529 1529 1529 1530 1530 1531 1531 1532 1532 1533 1533 1534 1534 1535 1535 1535 1536 1536 1536 1537 1537 1537 1537 1538 1538 1538 1538 1538 1538 1538 1538 1537 1537 1536 1536 1535
1525 1525 1526 1526 1526 1526 1527 1527 1527 1528 1528 1529 1529 1530 1530 1531 1531 1532 1532 1532 1533 1534 1534 1535 1535 1535 1536 1536 1536 1537 1537 1537 1538 1538 1537 1537 1537 1537 1537 1536 1536 1535 1535
1523 1523 1524 1524 1524 1524 1525 1525 1526 1526 1526 1527 1528 1528 1529 1529 1530 1530 1530 1531 1532 1532 1533 1533 1534 1534 1535 1535 1535 1536 1536 1536 1537 1537 1537 1537 1537 1537 1536 1536 1535 1535 1534
1521 1521 1522 1522 1522 1522 1523 1523 1524 1524 1525 1525 1526 1526 1527 1527 1528 1528 1528 1529 1530 1530 1531 1532 1532 1533 1533 1534 1534 1534 1535 1535 1535 1536 1535 1535 1536 1536 1535 1535 1534 1534 1534
1519 1519 1520 1520 1520 1520 1520 1521 1522 1522 1523 1523 1524 1524 1525 1525 1526 1526 1526 1527 1527 1528 1529 1530 1531 1531 1532 1532 1533 1533 1533 1534 1534 1534 1534 1534 1534 1535 1534 1534 1533 1533 1532
1517 1517 1517 1518 1518 1518 1518 1519 1519 1520 1520 1521 1522 1522 1523 1523 1524 1524 1524 1525 1525 1526 1527 1528 1529 1529 1530 1530 1531 1531 1532 1532 1533 1533 1533 1533 1533 1533 1533 1533 1532 1531 1531
1515 1515 1515 1515 1515 1515 1516 1517 1517 1518 1518 1519 1519 1520 1520 1521 1522 1522 1522 1522 1523 1524 1525 1526 1527 1528 1528 1529 1529 1530 1530 1530 1530 1531 1531 1531 1532 1532 1531 1531 1531 1530 1529
1512 1512 1512 1513 1513 1513 1513 1514 1515 1515 1515 1516 1517 1517 1518 1519 1519 1519 1520 1520 1520 1521 1522 1523 1524 1525 1526 1527 1527 1528 1528 1528 1528 1529 1529 1529 1530 1530 1530 1529 1529 1529 1528
1509 1509 1509 1510 1510 1510 1511 1511 1512 1512 1513 1513 1514 1515 1515 1516 1516 1517 1517 1517 1518 1519 1520 1521 1522 1523 1524 1524 1525 1526 1526 1526 1526 1527 1527 1527 1528 1528 1528 1527 1527 1527 1526
1506 1507 1507 1507 1507 1507 1508 1508 1509 1509 1510 1510 1511 1512 1513 1513 1514 1514 1515 1515 1515 1516 1517 1518 1519 1520 1521 1522 1523 1524 1524 1524 1525 1524 1525 1525 1525 1526 1525 1525 1525 1524 1524
1503 1503 1503 1504 1504 1504 1504 1505 1505 1505 1506 1507 1508 1509 1510 1510 1511 1511 1512 1513 1513 1513 1513 1515 1515 1517 1519 1520 1521 1521 1522 1523 1523 1523 1523 1523 1523 1523 1523 1523 1523 1522 1522
1500 1500 1500 1500 1501 1501 1501 1502 1502 1503 1503 1504 1505 1506 1506 1507 1508 1508 1509 1509 1510 1510 1510 1511 1512 1513 1515 1517 1518 1519 1520 1522 1520 1521 1520 1520 1520 1520 1520 1520 1520 1520 1520
1497 1497 1497 1497 1497 1498 1499 1499 1499 1500 1500 1501 1502 1502 1503 1504 1504 1505 1506 1506 1507 1507 1508 1508 1509 1510 1511 1514 1516 1517 1518 1517 1517 1518 1517 1518 1518 1518 1517 1517 1517 1517 1517
1494 1494 1494 1494 1494 1495 1495 1495 1496 1496 1497 1497 1498 1499 1500 1500 1501 1502 1502 1503 1504 1504 1505 1505 1506 1508 1509 1510 1512 1513 1515 1514 1515 1514 1515 1515 1515 1515 1514 1514 1514 1513 1513
1491 1491 1490 1490 1491 1491 1492 1492 1492 1493 1494 1494 1495 1496 1496 1497 1497 1498 1499 1500 1500 1501 1501 1502 1503 1505 1506 1507 1508 1509 1510 1511 1512 1512 1511 1511 1512 1512 1512 1512 1511 1510 1510
1488 1487 1487 1487 1487 1488 1488 1488 1489 1490 1491 1491 1491 1492 1492 1493 1494 1494 1495 1496 1496 1497 1498 1499 1499 1501 1502 1504 1505 1506 1507 1507 1508 1508 1508 1508 1508 1508 1508 1508 1508 1507 1507